COSMOS 1275 DEB, 12963

Orbit data source: Space-Track

COSMOS 1275 DEB, 12963 is space debris in LEO originally from a launch on Thu, 04 Jun 1981 UTC launched from the Plesetsk Missile And Space Complex (PKMTR). Debris objects in space refer to the collection of defunct objects orbiting the Earth. Examples of debris include non-operational satellites, rocket bodies, and fragments generated from explosions, collisions, or faulty payload assembly.

Loading next visibility...
Identifier
12963, 1981-053EJ
Orbit
LEO
Country
Flag of CISCIS
Related business
Manufacturer
Unknown
Mission
Spacecraft
Bus & Motor
Unknown
Mass
Unknown
Launch date (UTC)
1981-06-04 (45 years ago)
Launch vehicle
Unknown
Launch site
Plesetsk Missile And Space Complex (PKMTR)
Object type
Payload
Rocket body
Debris
Shape & HBR
Unknown shape, 0.1 m
Radar Cross Section
Small (<0.1 m²)

Expand to show TLE details & history
Last TLE update: 3 hours ago

TLE from 3 hours ago
0 COSMOS 1275 DEB
1 12963U 81053EJ  26119.65269366  .00000410  00000-0  35899-3 0  9992
2 12963  82.9473 209.0389 0022649   0.5421 127.6011 13.83295332239148
Epoch: 2026-04-29T15:39Z
TLE epoch observation values (Epoch: 2026-04-29T15:39:52.732Z)
Latitude
51.20422°
Longitude
-72.34786°
Altitude
970.61 km
Speed
7.366 km/s
True Right ascension
01h 20m 55s
True Declination
51° 02' 28"
Sunlit
Object was in daylight at epoch
Visualization orbit readout
Latitude
Unknown
Longitude
Unknown
Altitude
Unknown
Speed
Unknown
Apparent Right ascension
Unknown
Apparent Declination
Unknown
Sunlit
N/A
Visualization observer readout
Local Sidereal Time
02:26:55
Azimuth
Unknown
Elevation
Unknown
Doppler factor
Unknown
Orbital elements
Apogee altitude
965.955 km
Perigee altitude
932.763 km
Semi-major axis
7,327.496 km
Eccentricity
0.00226
Inclination
82.9473°
RAAN
209.0389°
Arg. of periapsis
0.5421°
True anomaly
127.80637°
Mean anomaly
127.6011°
Eccentric anomaly
127.70377°
Mean motion
3.46027 °/min
Orbital period
104.04 mins
BSTAR
0.00035899
Loading maneuver chart data...
Computing Atmospheric mass density...
Loading historical data...
Loading historical data...
Loading historical data...
Loading historical data...
Loading historical data...
Loading historical data...
Loading historical data...

Documentation

Showing up to 5 results
|